Mount Airy, NC

11:11 AM EDT on April 24, 2017 (GMT -0400)
Mount Airy-Surry County

Weather History for KMWK - January, 2013

Change the Weather History Date:

Sunday, January 20, 2013

  Actual Average (KINT) Record (KINT)
Temperature  
Mean Temperature 44 °F -  
Max Temperature 60 °F 44 °F 66 °F (1989)
Min Temperature 28 °F 28 °F 6 °F (1976)
Degree Days  
Heating Degree Days 21    
Moisture  
Dew Point 26 °F    
Average Humidity 56    
Maximum Humidity 85    
Minimum Humidity 23    
Precipitation  
Precipitation 0.00 in - - ()
Sea Level Pressure  
Sea Level Pressure 30.05 in    
Wind  
Wind Speed 3 mph (WNW)    
Max Wind Speed 12 mph    
Max Gust Speed 23 mph    
Visibility 10 miles    
Events      
Averages and records for this station are not official NWS values.
T = Trace of Precipitation, MM = Missing Value Source: NWS Daily Summary

Daily Weather History Graph

Daily Weather History Graph

Search for Another Location

Airport or City:

Trip Planner

Search our weather history database for the weather conditions in past years. The results will help you decide how hot, cold, wet, or windy it might be!

Date:

Astronomy

Jan. 20, 2013 Rise Set
Actual Time 7:31 AM EST 5:35 PM EST
Civil Twilight 7:03 AM EST 6:03 PM EST
Nautical Twilight 6:31 AM EST 6:35 PM EST
Astronomical Twilight 6:01 AM EST 7:05 PM EST
Moon 12:35 PM EST (1/20) 2:02 AM EST (1/20)
Length of Visible Light 11h 00m
Length of Day
10h 04m
Waxing Gibbous, 66% of the Moon is Illuminated
Jan 20
Waxing Gibbous
Jan 26
Full
Feb 3
Last Quarter
Feb 10
New
Feb 17
First Quarter

Hourly Weather History & Observations

Time (EST) Temp. Windchill Dew Point Humidity Pressure Visibility Wind Dir Wind Speed Gust Speed Precip Events Conditions
12:15 AM 28.8 °F - 20.1 °F 70% 30.10 in 10.0 mi Calm Calm - N/A   Clear
12:35 AM 28.9 °F - 21.0 °F 72% 30.09 in 10.0 mi Calm Calm - N/A   Clear
12:55 AM 28.4 °F - 20.3 °F 72% 30.09 in 10.0 mi Calm Calm - N/A   Clear
1:15 AM 28.8 °F - 21.2 °F 73% 30.08 in 10.0 mi Calm Calm - N/A   Clear
1:35 AM 29.7 °F - 22.1 °F 73% 30.08 in 10.0 mi Calm Calm - N/A   Clear
1:55 AM 28.8 °F - 21.4 °F 74% 30.08 in 10.0 mi Calm Calm - N/A   Clear
2:15 AM 28.4 °F - 21.2 °F 74% 30.08 in 10.0 mi Calm Calm - N/A   Clear
2:35 AM 28.0 °F - 21.0 °F 75% 30.07 in 10.0 mi Calm Calm - N/A   Clear
2:55 AM 28.4 °F - 22.1 °F 77% 30.06 in 10.0 mi Calm Calm - N/A   Clear
3:15 AM 28.4 °F - 22.1 °F 77% 30.06 in 10.0 mi Calm Calm - N/A   Clear
3:35 AM 28.2 °F - 22.1 °F 78% 30.06 in 10.0 mi Calm Calm - N/A   Clear
3:55 AM 28.6 °F - 22.5 °F 78% 30.06 in 10.0 mi Calm Calm - N/A   Clear
4:15 AM 28.2 °F - 22.1 °F 78% 30.05 in 10.0 mi Calm Calm - N/A   Clear
4:35 AM 28.2 °F - 22.6 °F 80% 30.05 in 10.0 mi Calm Calm - N/A   Clear
4:55 AM 28.8 °F - 23.4 °F 80% 30.04 in 10.0 mi Calm Calm - N/A   Clear
5:15 AM 28.0 °F - 22.5 °F 80% 30.04 in 10.0 mi Calm Calm - N/A   Clear
5:35 AM 28.4 °F - 23.0 °F 80% 30.04 in 10.0 mi Calm Calm - N/A   Clear
5:55 AM 29.7 °F - 24.6 °F 81% 30.04 in 10.0 mi Calm Calm - N/A   Clear
6:15 AM 33.3 °F - 28.4 °F 82% 30.04 in 10.0 mi Calm Calm - N/A   Clear
6:35 AM 32.0 °F - 26.2 °F 79% 30.05 in 10.0 mi Calm Calm - N/A   Clear
6:55 AM 32.0 °F - 26.4 °F 80% 30.05 in 10.0 mi Calm Calm - N/A   Clear
7:15 AM 31.6 °F - 25.9 °F 79% 30.05 in 10.0 mi Calm Calm - N/A   Clear
7:35 AM 30.9 °F - 25.7 °F 81% 30.05 in 10.0 mi Calm Calm - N/A   Clear
7:55 AM 30.2 °F - 25.2 °F 82% 30.05 in 10.0 mi Calm Calm - N/A   Clear
8:15 AM 32.4 °F - 28.4 °F 85% 30.05 in 10.0 mi Calm Calm - N/A   Clear
8:35 AM 36.0 °F - 31.8 °F 85% 30.05 in 10.0 mi Calm Calm - N/A   Clear
8:55 AM 41.4 °F - 36.9 °F 84% 30.06 in 10.0 mi Calm Calm - N/A   Clear
9:55 AM 51.8 °F - 41.7 °F 68% 30.06 in 10.0 mi WSW 6.9 mph - N/A   Clear
10:15 AM 53.4 °F - 36.3 °F 52% 30.06 in 10.0 mi West 10.4 mph - N/A   Clear
10:35 AM 54.5 °F - 34.0 °F 46% 30.07 in 10.0 mi West 6.9 mph - N/A   Clear
10:55 AM 55.9 °F - 33.4 °F 43% 30.06 in 10.0 mi West 9.2 mph - N/A   Clear
11:15 AM 57.0 °F - 32.2 °F 39% 30.06 in 10.0 mi West 11.5 mph 16.1 mph N/A   Clear
11:35 AM 57.6 °F - 31.5 °F 37% 30.05 in 10.0 mi West 10.4 mph 16.1 mph N/A   Clear
11:55 AM 57.9 °F - 30.9 °F 36% 30.04 in 10.0 mi West 9.2 mph 19.6 mph N/A   Clear
12:15 PM 58.6 °F - 30.0 °F 34% 30.03 in 10.0 mi West 11.5 mph 20.7 mph N/A   Clear
12:35 PM 59.5 °F - 29.5 °F 32% 30.03 in 10.0 mi West 11.5 mph 18.4 mph N/A   Clear
12:55 PM 59.4 °F - 27.5 °F 30% 30.02 in 10.0 mi West 10.4 mph 19.6 mph N/A   Clear
1:15 PM 59.9 °F - 26.6 °F 28% 30.02 in 10.0 mi West 11.5 mph 21.9 mph N/A   Clear
1:35 PM 60.1 °F - 26.2 °F 28% 30.01 in 10.0 mi WNW 10.4 mph 20.7 mph N/A   Clear
1:55 PM 60.3 °F - 25.7 °F 27% 30.01 in 10.0 mi West 11.5 mph 19.6 mph N/A   Clear
2:15 PM 60.4 °F - 25.0 °F 26% 30.01 in 10.0 mi WSW 11.5 mph 20.7 mph N/A   Clear
2:35 PM 60.8 °F - 24.1 °F 25% 30.00 in 10.0 mi West 11.5 mph 17.3 mph N/A   Clear
2:55 PM 60.3 °F - 22.5 °F 23% 30.01 in 10.0 mi West 10.4 mph 23.0 mph N/A   Clear
3:15 PM 60.1 °F - 22.5 °F 24% 30.00 in 10.0 mi WNW 9.2 mph 16.1 mph N/A   Clear
3:35 PM 59.9 °F - 21.4 °F 23% 30.01 in 10.0 mi WNW 9.2 mph - N/A   Clear
4:15 PM 57.7 °F - 20.5 °F 24% 30.02 in 10.0 mi NW 8.1 mph 16.1 mph N/A   Clear
4:55 PM 54.9 °F - 22.3 °F 28% 30.03 in 10.0 mi NW 9.2 mph - N/A   Clear
5:15 PM 52.9 °F - 23.5 °F 32% 30.04 in 10.0 mi WNW 6.9 mph - N/A   Clear
5:35 PM 50.5 °F - 24.4 °F 36% 30.05 in 10.0 mi WNW 5.8 mph - N/A   Clear
5:55 PM 49.6 °F - 24.6 °F 38% 30.05 in 10.0 mi WNW 4.6 mph - N/A   Clear
6:15 PM 48.2 °F - 25.3 °F 41% 30.06 in 10.0 mi WNW 8.1 mph - N/A   Clear
6:35 PM 48.2 °F - 26.1 °F 42% 30.07 in 10.0 mi WNW 4.6 mph - N/A   Clear
6:55 PM 47.3 °F - 27.0 °F 45% 30.07 in 10.0 mi WNW 4.6 mph - N/A   Clear
7:15 PM 47.3 °F - 27.3 °F 46% 30.08 in 10.0 mi West 6.9 mph - N/A   Clear
7:35 PM 46.8 °F - 27.7 °F 47% 30.07 in 10.0 mi West 5.8 mph - N/A   Clear
7:55 PM 45.9 °F 42.9 °F 28.0 °F 50% 30.07 in 10.0 mi West 5.8 mph - N/A   Clear
8:15 PM 45.5 °F - 28.4 °F 51% 30.07 in 10.0 mi Calm Calm - N/A   Clear
8:35 PM 44.6 °F 42.2 °F 29.3 °F 55% 30.07 in 10.0 mi WNW 4.6 mph - N/A   Clear
9:15 PM 43.7 °F - 28.4 °F 55% 30.07 in 10.0 mi Calm Calm - N/A   Clear
9:35 PM 41.9 °F - 25.3 °F 52% 30.07 in 10.0 mi Calm Calm - N/A   Clear
9:55 PM 39.2 °F - 21.9 °F 50% 30.07 in 10.0 mi Calm Calm - N/A   Clear
10:15 PM 37.6 °F - 23.5 °F 57% 30.07 in 10.0 mi Calm Calm - N/A   Clear
10:35 PM 40.1 °F - 26.8 °F 59% 30.07 in 10.0 mi Calm Calm - N/A   Clear
10:55 PM 36.9 °F - 20.7 °F 52% 30.07 in 10.0 mi Calm Calm - N/A   Clear
11:15 PM 36.3 °F 33.7 °F 24.1 °F 61% 30.06 in 10.0 mi NNW 3.5 mph - N/A   Clear
11:35 PM 40.3 °F - 28.8 °F 63% 30.06 in 10.0 mi Calm Calm - N/A   Clear
11:55 PM 37.0 °F - 23.9 °F 59% 30.05 in 10.0 mi Calm Calm - N/A   Clear